Location: Jackson Park
(37.2862°N, 79.9123°W)
Time: 14:45:56
(UTC+00:00)

Vanguard 2 Rocket - Pass Details

Date: 11 May 2026
Orbit: 553 x 3286 km, 32.9° (Epoch: 6 June)

Event Time Altitude Azimuth Distance (km) Brightness Sun altitude
Rises 17:27:07 0° 244° (WSW) 5,738 11.1 70.6°
Reaches altitude 10° 17:30:23 10° 242° (WSW) 5,030 11.0 70.5°
Maximum altitude 17:46:21 69° 163° (SSE) 3,275 11.8 69.6°
Drops below altitude 10° 18:06:18 10° 86° (E) 6,105 11.1 67.8°
Sets 18:10:45 0° 84° (E) 6,967 11.2 67.3°
